Other Surface Observations
Issued by NWS Tucson, AZ

Home | Current Version | Previous Version | Text Only | Print | Product List | Glossary On
Versions: 1 2 3 4 5 6 7 8 9 10 11 12 13 14 15 16 17 18 19 20 21 22 23 24 25 26 27 28 29 30 31 32 33 34 35 36 37 38 39 40 41 42 43 44 45 46 47 48 49 50
000
SXUS55 KTWC 301115
OSOTWC

WEATHER ROUNDUP FOR SOUTHEAST ARIZONA
NATIONAL WEATHER SERVICE TUCSON AZ
415 AM MST TUE MAY 30 2017

AZZ504>506-514-301215-
LOCATION       SKY/WX    TMP DP  RH WIND       PRES   REMARKS
TUCSON         PTCLDY    71  32  23 SE8       29.92R
DAVIS-MONTHAN  PTCLDY    69  31  24 SE8       29.91R
CHILDRENS PARK N/A      N/A N/A  23 E3                PIMA CO DEQ
ALVERNON/22ND  N/A       74 N/A N/A SE1               PIMA CO DEQ
CHERRY/GLENN   N/A      N/A N/A N/A N/A               PIMA CO DEQ
TANGERINE      N/A       70 N/A N/A NE4               PIMA CO DEQ
CONTL RANCH    N/A       71  29  21 SE4               PIMA CO DEQ
GRANT/1ST      N/A       73  35  25 SE2               PIMA CO DEQ
CRAYCROFT/22ND N/A       73  33  23 NE5               PIMA CO DEQ
GOLFLINKS/KOLB N/A      N/A N/A N/A N/A               PIMA CO DEQ
AJO/12TH       N/A       70  35  28 SW2               PIMA CO DEQ
FAIRGROUNDS    N/A       67 N/A N/A SE6               PIMA CO DEQ
SAGUARO        N/A       69  30  23 CALM              *SABINO CYN
SAN CARLOS     N/A       77  35  22 N2                *SAN CARLOS
GREEN VALLEY   N/A       71  33  25 S4                PIMA CO DEQ
HORSE CAMP CYN N/A       75  36  24 E13G18            *ARAVAIPA CYN
RINCON MTNS    N/A       54  34  47 NE9G14            *NR MANNING CAMP
$$

AZZ509>511-301215-
LOCATION       SKY/WX    TMP DP  RH WIND       PRES   REMARKS
SAFFORD        CLEAR     75  44  33 SE12      30.01R
STRAY HORSE    N/A       56  31  38 N/A               *
TRAIL CABIN    N/A       63  36  37 SE13G20           *N OF GRANVILLE
BLACK HILLS    NOT AVBL
DRY LAKE       N/A       56  31  39 SE6G10            *NATANES MTNS
NOON CREEK     N/A       66  40  39 SW3G11            *PINALENO MTNS
COLUMBINE      N/A       47  34  61 SE4G11            *PINALENO MTNS
GUTHRIE        N/A       61  40  45 E10G20            *SW OF GUTHRIE
$$

AZZ502-503-513-301215-
LOCATION       SKY/WX    TMP DP  RH WIND       PRES   REMARKS
NOGALES        MOCLDY    63  32  31 CALM      30.00R
SELLS          N/A       68  24  19 NE3               *
SASABE         N/A       64  28  26 SW5               *ALTAR VLY
HOPKINS        N/A       62  25  24 CALM              *SANTA RITA MTNS
CARR CYN       N/A       66  26  22 SW3               *W OF HEREFORD
$$

AZZ507-508-512-301215-
LOCATION       SKY/WX    TMP DP  RH WIND       PRES   REMARKS
SIERRA VISTA   MOCLDY    67  28  23 SW7       30.05R
DOUGLAS        PTCLDY    71  43  36 E16       30.02R
EMPIRE MTNS    NOT AVBL
MULESHOE RANCH N/A       71  39  31 E12G24            *PRESERVE
HEADQUARTERS   NOT AVBL
$$

.............................NOTES.............................
THIS IS AN AUTOMATED COLLECTIVE WITH MINIMAL QUALITY CONTROL.
PIMA CO DEQ SITES HAVE NONSTANDARD WIND SENSOR HEIGHTS.
PIMA CO DEQ SITES DO NOT REPORT WIND GUSTS.
* INDICATES WIND SENSORS LOCATED AT 20 FEET INSTEAD OF 33 FEET.
..............................KEY..............................
SKY/WX - SKY CONDITION/WEATHER
TMP    - TEMPERATURE IN FAHRENHEIT
DP     - DEWPOINT IN FAHRENHEIT
RH     - RELATIVE HUMIDITY IN PERCENT
WIND   - DIRECTION AND SPEED IN MILES PER HOUR (MPH)
VRB    - VARIABLE WIND DIRECTION
PRES   - MEAN SEA LEVEL PRESSURE IN INCHES OF MERCURY
         F - FALLING PRESSURE   R - RISING PRESSURE
         S - STEADY PRESSURE
VSB    - VISIBILITY IN MILES
HX     - HEAT INDEX IN FAHRENHEIT
WCI    - WIND CHILL INDEX IN FAHRENHEIT
N/A    - NOT AVAILABLE
AFB    - AIR FORCE BASE
         DAVIS-MONTHAN IS DAVIS-MONTHAN AIR FORCE BASE
CYN    - CANYON
MTNS   - MOUNTAINS
NCA    - NATIONAL CONSERVATION AREA
NR     - NEAR
VLY    - VALLEY
CONTL  - CONTINENTAL
PIMA CO DEQ - PIMA COUNTY DEPT OF ENVIRONMENTAL QUALITY



USA.gov is the U.S. government's official web portal to all federal, state and local government web resources and services.